{"data":{"norad_id":67955,"epoch":"2026-09-19T04:29:50.610912Z","epoch_age_seconds":176614,"freshness":"STALE","line1":"1 67955U 26037Z   26262.18739133  .00018667  00000+0  68621-3 0  9996","line2":"2 67955  42.9991 177.9395 0001734 260.7444  99.3211 15.27576536 32930","mean_motion":15.27576536,"eccentricity":0.0001734,"inclination_deg":42.9991,"raan_deg":177.9395,"arg_perigee_deg":260.7444,"mean_anomaly_deg":99.3211,"bstar":0.00068621,"rev_number":3293,"period_min":94.266962477093,"perigee_km":481.86973705378,"apogee_km":484.24919998906,"semimajor_km":6861.1964685214,"source":"CELESTRAK","updated_at":"2026-09-20T09:00:43.711734Z"}}